Tracking 17630 objects as of 25-May-2016
HD Live streaming from Space Station
objects crossing your sky now

UNISAT 3

Track UNISAT 3 now!
10-day predictions
UNISAT 3 is classified as:


NORAD ID: 28373
Int'l Code: 2004-025H
Perigee: 699.7 km
Apogee: 796.7 km
Inclination: 98.3 °
Period: 99.6 minutes
Semi major axis: 7119 km
RCS: 0.116 m2 (medium)
Launch date: June 29, 2004
Source: Italy (IT)
Launch site: TYURATAM MISSILE AND SPACE COMPLEX (TTMTR)

Unisat 3 is an Italian, scientific microsatellite (12 kg) designed to test solar cells in the space environment.
Your satellite tracking list
Your tracking list is empty





NASA's NSSDC Master Catalog

Two Line Element Set (TLE):
1 28373U 04025H   16145.84254864  .00000108  00000-0  42631-4 0  9991
2 28373  98.2942  89.7889 0068162 309.9011  49.6201 14.45295135627808
Source of the keplerian elements: AFSPC

N2YO: 519